Precipitable_Water
1.06 1.02 0.95 0.86 0.75 0.62 0.55 0.52 0.51 0.49 0.47 0.49 0.51 0.50 0.48 0.45 0.37 0.36 0.27 0.52 0.77 1.13 1.49 1.70 1.70 1.74 1.86 1.62 1.66 1.45 0.82 0.68 0.73 0.75 0.80 0.93 0.86 0.96 1.02 0.80 0.87 0.90 0.91 1.15 1.32
1.04 1.03 0.96 0.88 0.80 0.70 0.60 0.53 0.50 0.46 0.46 0.46 0.47 0.51 0.49 0.44 0.27 0.21 0.28 0.53 0.80 1.19 1.33 1.53 1.40 1.64 1.55 1.46 1.45 1.27 0.92 0.78 0.93 0.95 0.86 0.90 0.95 0.98 0.90 0.89 0.78 0.79 1.06 1.24 1.28
1.05 1.02 0.97 0.89 0.81 0.73 0.68 0.60 0.53 0.46 0.45 0.45 0.43 0.48 0.52 0.41 0.25 0.26 0.31 0.52 0.76 1.21 1.35 1.51 1.48 1.49 1.38 1.44 1.36 1.33 1.09 1.11 0.97 0.96 0.98 0.92 0.96 1.08 0.92 0.84 0.79 0.63 0.84 1.11 1.22
1.05 1.01 0.97 0.91 0.82 0.73 0.70 0.63 0.56 0.49 0.47 0.42 0.40 0.44 0.49 0.39 0.13 0.37 0.38 0.57 0.64 0.99 1.18 1.34 1.35 1.25 1.14 1.15 1.43 1.22 1.30 1.23 1.01 1.02 0.98 0.92 1.04 0.97 0.99 0.97 0.99 0.83 0.88 1.00 1.10
1.05 1.01 0.97 0.93 0.84 0.75 0.70 0.64 0.56 0.52 0.49 0.42 0.37 0.41 0.34 0.30 0.27 0.48 0.39 0.52 0.54 0.64 0.91 1.10 1.15 1.21 1.03 1.20 1.32 1.24 1.26 1.26 1.20 1.06 0.97 1.02 0.94 0.96 0.98 1.13 1.13 0.92 0.90 0.92 1.01
1.04 1.00 0.97 0.95 0.86 0.76 0.70 0.65 0.58 0.55 0.50 0.47 0.37 0.40 0.27 0.24 0.47 0.52 0.41 0.39 0.34 0.55 0.74 1.03 0.99 1.13 1.06 1.19 1.20 1.28 1.28 1.29 1.23 1.05 0.95 0.90 0.91 0.98 1.01 1.15 1.08 0.83 0.79 0.88 0.94
1.00 0.97 0.93 0.89 0.84 0.77 0.69 0.63 0.59 0.57 0.53 0.48 0.41 0.37 0.22 0.30 0.49 0.51 0.34 0.28 0.37 0.61 0.70 0.93 0.90 0.87 1.18 1.19 1.37 1.28 1.19 1.21 1.19 1.14 1.02 0.99 0.83 0.88 1.07 1.17 1.00 0.76 0.80 0.86 0.98
0.96 0.93 0.90 0.87 0.79 0.71 0.63 0.60 0.60 0.58 0.54 0.49 0.45 0.34 0.20 0.44 0.51 0.42 0.26 0.22 0.31 0.59 0.75 0.75 0.78 0.75 1.00 1.22 1.28 1.12 1.13 1.00 1.21 1.15 1.09 1.00 0.74 0.99 1.15 1.13 0.97 0.78 0.79 0.80 0.87
0.98 0.95 0.90 0.86 0.75 0.64 0.61 0.68 0.66 0.55 0.53 0.54 0.47 0.34 0.24 0.48 0.36 0.40 0.33 0.21 0.31 0.59 0.62 0.64 0.59 0.60 0.74 0.75 0.88 1.05 0.84 0.95 1.05 1.22 1.12 1.00 0.81 1.02 1.18 1.15 0.98 0.87 0.80 0.79 0.81
1.00 0.95 0.91 0.85 0.72 0.63 0.65 0.70 0.72 0.61 0.57 0.57 0.47 0.33 0.35 0.29 0.30 0.36 0.43 0.42 0.38 0.45 0.39 0.43 0.45 0.50 0.63 0.67 0.63 0.76 0.78 0.95 0.96 1.09 1.19 1.03 0.98 1.10 1.18 1.13 1.07 0.90 0.85 0.84 0.83
1.03 0.94 0.92 0.84 0.68 0.64 0.61 0.58 0.40 0.40 0.39 0.29 0.29 0.35 0.36 0.37 0.35 0.32 0.44 0.39 0.37 0.31 0.25 0.33 0.38 0.43 0.54 0.62 0.71 0.73 0.74 0.85 0.98 1.10 1.02 1.05 1.08 1.12 1.16 1.14 1.10 1.04 0.91 0.87 0.83
1.04 0.96 0.93 0.86 0.65 0.65 0.58 0.40 0.42 0.44 0.29 0.37 0.35 0.38 0.41 0.40 0.27 0.34 0.43 0.32 0.26 0.20 0.23 0.22 0.23 0.39 0.50 0.62 0.60 0.57 0.48 0.54 0.84 1.05 1.01 1.01 1.02 1.18 1.20 1.17 1.17 1.11 0.96 0.85 0.89
1.07 0.98 0.91 0.85 0.65 0.59 0.48 0.45 0.55 0.48 0.28 0.29 0.34 0.33 0.34 0.40 0.31 0.36 0.38 0.29 0.23 0.19 0.18 0.17 0.19 0.27 0.41 0.48 0.52 0.49 0.44 0.47 0.64 0.86 0.96 0.97 0.93 1.00 1.21 1.26 1.34 1.26 1.09 0.99 0.93
1.09 0.99 0.89 0.86 0.58 0.56 0.47 0.56 0.55 0.49 0.26 0.28 0.30 0.33 0.34 0.34 0.29 0.40 0.40 0.29 0.24 0.19 0.19 0.17 0.18 0.20 0.28 0.37 0.45 0.46 0.45 0.45 0.61 0.60 0.50 0.83 0.59 0.80 1.00 1.10 1.24 1.25 1.21 1.06 0.97
1.09 1.00 0.90 0.88 0.69 0.52 0.57 0.62 0.51 0.43 0.16 0.30 0.30 0.34 0.31 0.28 0.27 0.31 0.40 0.32 0.24 0.22 0.21 0.17 0.16 0.15 0.18 0.29 0.39 0.43 0.50 0.44 0.46 0.50 0.54 0.64 0.56 0.74 0.94 0.95 1.05 1.22 1.29 1.17 1.03
1.12 1.03 0.88 0.83 0.77 0.63 0.70 0.61 0.45 0.26 0.17 0.27 0.27 0.25 0.24 0.28 0.25 0.29 0.31 0.34 0.30 0.25 0.23 0.21 0.22 0.18 0.16 0.21 0.27 0.39 0.50 0.55 0.51 0.52 0.41 0.52 0.55 0.63 0.80 0.92 1.03 1.20 1.25 1.29 1.23
1.12 1.04 0.82 0.86 0.55 0.71 0.67 0.46 0.26 0.21 0.29 0.23 0.24 0.26 0.24 0.24 0.25 0.25 0.25 0.25 0.22 0.18 0.18 0.20 0.20 0.20 0.20 0.17 0.22 0.30 0.43 0.35 0.35 0.38 0.38 0.56 0.55 0.66 0.93 1.03 1.12 1.14 1.21 1.32 1.34
1.12 1.01 0.85 0.85 0.76 0.68 0.55 0.35 0.23 0.29 0.27 0.37 0.30 0.27 0.24 0.26 0.24 0.23 0.23 0.22 0.25 0.21 0.18 0.16 0.14 0.19 0.21 0.19 0.18 0.23 0.30 0.29 0.25 0.29 0.37 0.47 0.36 0.58 1.00 1.12 1.21 1.21 1.15 1.28 1.38
1.09 0.91 0.81 0.78 0.78 0.71 0.46 0.28 0.26 0.35 0.38 0.35 0.31 0.25 0.24 0.26 0.25 0.24 0.23 0.22 0.23 0.23 0.18 0.17 0.16 0.23 0.22 0.25 0.25 0.24 0.23 0.33 0.29 0.33 0.30 0.32 0.33 0.56 0.86 0.90 0.96 1.00 1.08 1.06 1.28
0.88 0.80 0.74 0.84 0.76 0.62 0.43 0.32 0.32 0.45 0.41 0.39 0.29 0.27 0.24 0.24 0.23 0.24 0.23 0.24 0.22 0.23 0.23 0.20 0.17 0.21 0.23 0.26 0.26 0.27 0.31 0.25 0.28 0.20 0.18 0.23 0.25 0.33 0.60 0.81 0.88 0.92 0.96 1.17 1.24
0.84 0.67 0.77 0.77 0.62 0.49 0.35 0.35 0.36 0.44 0.49 0.41 0.34 0.30 0.27 0.26 0.24 0.23 0.24 0.25 0.24 0.23 0.24 0.22 0.20 0.19 0.23 0.22 0.22 0.25 0.25 0.26 0.27 0.27 0.22 0.19 0.21 0.57 0.63 0.82 0.87 0.98 1.10 1.18 1.29
0.81 0.56 0.83 0.78 0.51 0.52 0.44 0.46 0.48 0.42 0.50 0.47 0.45 0.39 0.31 0.31 0.29 0.27 0.24 0.26 0.27 0.25 0.21 0.22 0.20 0.18 0.19 0.24 0.26 0.25 0.24 0.26 0.21 0.20 0.22 0.23 0.23 0.73 0.76 0.85 0.92 1.01 1.13 1.25 1.34
0.71 0.72 0.93 0.82 0.48 0.48 0.53 0.53 0.56 0.54 0.50 0.46 0.44 0.43 0.39 0.32 0.29 0.30 0.30 0.33 0.31 0.26 0.22 0.24 0.21 0.18 0.19 0.23 0.26 0.24 0.27 0.26 0.26 0.25 0.21 0.19 0.21 0.75 0.81 0.82 0.96 0.93 1.15 1.29 1.37
0.80 0.59 0.71 0.74 0.70 0.56 0.53 0.53 0.54 0.65 0.60 0.55 0.50 0.51 0.44 0.36 0.35 0.32 0.33 0.36 0.35 0.32 0.32 0.28 0.22 0.20 0.17 0.19 0.23 0.23 0.26 0.28 0.24 0.19 0.19 0.21 0.30 0.55 0.69 0.74 0.87 0.96 1.11 1.30 1.40
0.86 0.67 0.73 0.59 0.63 0.67 0.65 0.60 0.57 0.59 0.67 0.66 0.53 0.50 0.47 0.38 0.37 0.36 0.38 0.37 0.39 0.39 0.32 0.29 0.22 0.23 0.23 0.24 0.25 0.25 0.26 0.30 0.27 0.24 0.19 0.21 0.29 0.44 0.61 0.78 0.89 0.97 1.05 1.17 1.25
0.73 0.74 0.82 0.70 0.74 0.69 0.68 0.61 0.60 0.63 0.67 0.63 0.58 0.59 0.55 0.46 0.42 0.38 0.39 0.38 0.34 0.39 0.33 0.31 0.24 0.26 0.24 0.27 0.26 0.24 0.27 0.33 0.36 0.34 0.34 0.35 0.38 0.64 0.82 0.87 0.91 0.96 1.01 1.03 1.19
0.86 0.92 0.81 0.72 0.68 0.62 0.63 0.66 0.66 0.71 0.74 0.75 0.73 0.64 0.57 0.58 0.56 0.51 0.48 0.46 0.42 0.37 0.36 0.31 0.28 0.25 0.22 0.28 0.28 0.23 0.26 0.31 0.42 0.49 0.45 0.35 0.48 0.72 0.73 0.75 0.84 0.95 1.01 1.04 1.10
Wind_Speed
5 4 3 3 3 3 3 4 4 4 3 4 4 4 4 4 4 6 7 6 7 9 8 7 7 7 5 3 4 5 5 5 5 8 8 9 11 10 11 11 9 8 10 12 14
5 4 4 3 3 3 3 4 4 3 3 3 4 4 4 4 5 7 8 9 9 10 8 7 6 5 3 3 6 5 5 4 3 4 7 9 10 10 10 11 10 11 13 14 14
6 5 4 4 4 4 4 4 4 3 3 3 3 4 4 4 5 6 10 11 11 10 9 6 6 4 4 4 4 4 7 3 2 2 9 10 8 8 10 9 8 11 13 14 14
7 6 5 5 5 5 5 5 5 4 4 3 3 4 5 5 5 6 10 11 11 10 9 7 5 2 1 2 5 7 6 4 2 4 8 9 8 8 7 6 9 10 13 13 13
8 7 6 6 5 5 5 5 5 4 4 4 4 4 6 6 6 7 11 11 10 10 9 8 6 4 1 4 7 6 5 4 2 4 8 8 6 5 5 8 10 10 11 12 12
10 9 8 7 6 5 5 5 4 4 4 4 4 5 6 7 6 8 10 11 11 11 10 8 7 6 4 6 5 5 4 2 1 7 9 7 5 4 5 7 8 9 9 11 12
10 10 9 8 7 6 5 4 3 3 3 4 4 5 7 8 7 8 10 11 12 12 10 8 6 6 6 7 6 5 6 4 4 5 6 7 2 2 5 7 7 7 8 10 10
11 11 10 9 8 7 5 3 2 1 2 2 3 4 6 8 8 8 10 11 12 12 10 8 7 7 7 8 6 5 3 3 1 3 6 7 4 3 6 7 5 6 8 9 10
12 12 11 10 9 7 5 3 1 0 1 2 2 4 5 7 8 9 11 11 12 12 10 9 8 8 7 7 6 5 5 5 4 2 5 7 6 8 8 7 6 6 7 8 8
12 12 12 10 9 7 4 3 2 2 2 2 3 3 4 6 8 9 11 11 12 11 10 8 7 7 7 7 10 10 7 5 7 6 4 7 4 8 11 9 9 7 8 8 9
12 13 12 11 9 6 3 2 3 1 1 2 3 3 4 5 7 9 11 11 11 11 11 10 9 11 9 9 7 8 7 9 9 8 7 10 8 10 11 11 11 10 9 10 11
13 13 13 11 6 4 3 2 3 1 2 2 3 3 4 5 6 9 10 10 11 12 12 10 12 13 10 10 9 8 8 10 9 9 7 9 12 9 11 14 14 14 13 13 12
14 14 13 10 5 2 2 1 4 1 1 3 3 3 3 4 6 11 10 9 10 11 12 13 13 12 13 12 11 10 11 9 10 10 10 7 9 10 13 14 15 16 16 14 15
15 14 13 10 3 4 3 4 5 2 1 3 4 4 4 4 4 9 11 9 9 12 12 13 15 14 15 15 13 12 12 12 10 9 12 11 11 12 14 15 16 17 18 17 16
16 15 13 9 7 5 5 7 4 3 2 3 3 3 4 4 4 7 10 9 10 10 10 12 12 14 15 17 16 16 12 13 12 11 9 10 9 10 9 12 17 18 19 18 17
18 17 14 10 9 9 9 7 5 4 5 4 4 4 4 5 4 5 8 8 9 9 10 14 12 14 16 15 17 15 12 9 9 11 11 12 10 9 9 9 9 13 17 19 18
20 19 14 11 10 10 10 8 6 6 6 6 7 5 5 7 8 7 8 9 9 8 10 12 14 14 14 15 15 15 13 12 11 11 13 11 9 13 11 8 9 12 14 18 19
22 18 14 13 10 11 10 8 9 9 10 8 8 8 8 8 10 8 8 10 11 8 8 10 12 15 15 17 16 18 18 16 14 13 13 10 13 12 9 9 9 13 16 17 19
23 17 14 13 14 12 10 11 13 12 11 10 10 10 11 11 10 10 12 12 12 11 10 8 12 12 15 14 15 17 17 17 13 13 12 14 15 15 12 10 8 11 14 18 18
21 17 15 14 13 13 12 15 14 14 12 11 13 12 13 12 12 11 12 12 14 14 12 11 10 12 13 14 14 16 17 15 15 15 16 16 16 17 12 12 10 10 11 13 17
20 17 17 14 14 14 15 17 17 17 14 14 14 14 14 13 14 14 13 14 12 10 12 12 11 13 12 13 17 16 17 14 16 17 17 17 19 18 17 15 13 11 11 11 13
20 19 17 16 15 15 16 16 17 18 19 18 17 17 17 15 15 16 17 17 14 14 13 14 11 14 17 15 17 17 20 19 18 20 19 19 21 16 16 15 14 13 12 13 13
23 23 22 21 20 21 20 19 19 19 19 19 19 18 17 19 17 18 18 18 18 16 15 16 14 12 13 13 15 15 18 19 19 19 23 20 22 19 18 17 15 13 13 14 15
25 23 23 23 24 22 22 22 22 21 21 21 21 20 20 21 21 20 20 19 18 19 16 16 16 16 17 17 15 16 18 19 19 19 21 24 21 20 19 19 18 15 14 15 16
27 27 26 25 25 24 25 25 23 22 21 21 20 20 21 22 22 23 22 21 20 20 20 20 20 18 17 17 17 17 17 18 21 22 20 22 24 25 21 20 19 18 16 14 15
30 29 29 30 30 28 27 26 26 25 25 24 23 24 24 24 24 23 22 22 22 21 21 22 21 19 18 19 20 20 21 18 18 19 19 19 20 21 21 19 19 20 19 18 17
29 30 31 31 30 30 31 29 27 26 26 25 24 25 26 26 25 25 26 24 23 22 23 22 22 20 22 20 19 22 24 21 19 19 19 20 22 21 22 20 18 17 16 15 15
Wind_Direction
359 353 347 342 332 320 313 309 305 296 282 274 263 252 246 241 226 199 196 181 163 158 146 134 129 125 133 147 167 139 112 103 94 101 101 110 93 90 65 88 72 71 111 121 127
356 348 340 334 328 326 323 317 310 297 286 278 261 249 239 231 210 203 194 175 163 160 153 148 140 126 85 127 146 139 140 111 108 106 116 118 104 93 77 77 68 84 106 118 125
1 353 340 332 323 316 316 314 309 289 283 278 261 242 225 214 193 197 188 184 175 169 165 161 148 135 65 133 164 166 146 103 106 138 134 130 102 86 93 66 80 109 118 124 127
8 1 348 333 320 311 306 303 298 286 275 269 259 235 217 194 190 193 184 182 179 180 179 174 170 163 61 177 169 159 164 153 131 102 141 135 117 92 89 62 92 111 122 127 133
10 4 354 343 332 322 312 303 290 276 269 260 250 232 204 194 199 188 186 187 188 188 190 188 190 194 206 148 149 149 179 184 237 175 145 137 124 107 84 86 95 114 126 133 138
19 14 7 356 345 336 324 310 289 272 260 252 243 224 206 196 204 197 194 194 194 192 192 193 200 210 195 172 175 177 201 212 196 153 161 147 135 109 109 111 105 123 133 140 142
15 13 8 4 353 343 335 327 305 275 255 245 233 217 207 202 208 202 199 200 196 192 194 202 208 204 180 170 181 166 135 121 93 153 167 156 160 151 141 137 121 132 140 144 147
15 10 4 359 357 348 342 338 318 271 231 219 206 201 206 203 207 208 203 199 197 196 200 212 212 202 195 180 191 189 199 185 177 167 195 191 228 188 168 159 149 152 153 157 156
8 6 3 1 359 353 354 348 342 157 182 186 186 193 201 208 210 212 202 199 197 201 209 217 211 208 206 205 211 214 198 210 233 222 209 200 207 207 194 186 182 174 170 169 164
3 1 360 357 355 359 7 38 79 95 122 160 196 181 208 209 211 206 201 199 203 206 211 210 209 209 214 211 217 217 220 222 216 218 196 207 243 199 204 204 204 196 195 189 184
355 355 355 353 352 1 27 45 18 360 220 212 212 232 218 221 212 203 201 203 211 213 215 223 215 222 225 220 211 208 224 219 229 230 230 236 259 237 218 219 217 217 212 206 201
347 347 346 347 349 9 27 41 39 322 315 247 228 238 236 221 204 200 202 208 213 217 222 230 226 226 224 221 231 229 229 240 249 230 239 231 239 234 228 226 226 224 221 216 212
341 340 339 339 332 345 1 353 344 320 301 274 222 226 217 197 215 206 203 213 215 218 224 221 229 223 227 232 234 239 237 241 235 231 248 245 263 255 240 236 234 231 228 222 216
337 335 333 330 298 301 292 318 317 268 340 264 244 246 222 218 240 212 210 213 222 217 218 233 236 231 228 231 225 240 233 234 227 226 246 236 257 268 239 238 233 230 227 226 220
330 328 324 314 288 269 284 303 291 283 298 232 230 256 237 213 231 219 216 223 220 223 221 236 235 230 230 232 226 234 233 233 237 238 243 250 259 270 229 244 237 231 225 223 218
324 319 311 294 281 264 280 284 274 288 263 244 229 238 225 236 243 217 221 228 231 229 240 238 243 238 233 230 227 230 235 248 250 245 250 245 238 255 239 248 246 231 226 223 220
318 314 299 285 274 266 273 266 275 253 261 247 246 241 244 233 241 233 224 224 226 234 246 253 244 243 234 234 234 230 229 245 249 246 242 251 241 244 251 267 252 241 228 221 219
313 306 292 278 270 266 262 262 259 256 241 258 251 248 240 235 243 235 229 234 237 239 241 238 260 235 234 230 230 228 224 227 234 238 243 244 241 244 241 257 262 245 239 227 218
309 299 285 279 259 261 258 259 255 249 254 260 257 243 251 252 244 238 234 237 237 229 234 240 254 246 236 233 226 230 230 232 231 250 246 245 252 247 257 268 275 274 254 225 214
302 293 282 276 253 258 258 257 258 252 263 260 249 243 241 248 235 232 235 247 242 237 242 247 255 245 246 230 238 232 227 232 241 234 241 250 246 240 258 262 265 272 269 242 226
295 287 283 266 262 260 255 254 257 256 262 256 251 250 244 243 235 239 241 249 240 247 243 242 241 251 247 237 231 236 235 238 233 237 234 245 248 239 243 250 253 262 259 238 229
287 281 274 262 262 262 257 254 257 257 261 256 254 249 243 243 242 245 242 245 244 239 238 238 238 240 241 246 245 240 235 233 234 241 246 244 251 240 242 244 242 251 253 236 226
283 274 269 260 259 259 260 259 259 260 257 254 253 249 250 247 251 246 247 253 248 241 235 232 247 247 262 254 246 240 242 238 239 244 240 240 250 243 240 238 243 243 243 231 221
278 273 269 262 259 256 258 258 258 257 256 256 254 252 253 251 251 254 253 257 250 244 244 237 244 238 238 242 239 239 241 237 235 240 243 244 240 241 238 236 235 236 233 228 224
271 267 263 264 260 259 257 258 255 255 255 258 255 254 254 254 253 252 256 257 255 244 244 239 241 243 247 242 239 239 239 234 236 241 239 246 238 234 233 232 230 230 230 224 223
269 267 265 262 260 258 255 255 255 255 253 254 254 259 256 252 249 254 250 252 250 249 241 243 244 242 243 243 241 242 241 237 243 240 247 242 243 236 229 232 235 235 235 237 234
270 266 263 261 260 257 255 253 252 253 253 251 256 256 255 255 256 254 251 252 254 245 240 238 237 241 245 241 245 250 240 240 242 244 238 240 243 231 227 228 230 231 233 235 238